Weather History for Moncks Corner, SC

Change the Weather History Date:

Sunday, March 31, 2013

  Actual Average (KCHS) Record (KCHS)
Temperature  
Mean Temperature 67 °F 62 °F  
Max Temperature 77 °F 73 °F 88 °F (1954)
Min Temperature 57 °F 50 °F 27 °F (1964)
Degree Days  
Heating Degree Days 0 5  
Month to date heating degree days 240  
Since 1 July heating degree days 1875  
Cooling Degree Days 2 1  
Month to date cooling degree days 27  
Year to date cooling degree days 34  
Growing Degree Days 17 (Base 50)    
Moisture  
Dew Point 54 °F    
Average Humidity 69    
Maximum Humidity 94    
Minimum Humidity 47    
Precipitation  
Precipitation 0.22 in 0.12 in 1.87 in (1990)
Month to date precipitation 3.71  
Year to date precipitation 10.38  
Sea Level Pressure  
Sea Level Pressure 29.99 in    
Wind  
Wind Speed 9 mph (SW)    
Max Wind Speed 15 mph    
Max Gust Speed 28 mph    
Visibility 9 miles    
Events Rain , Thunderstorm    
T = Trace of Precipitation, MM = Missing Value Source: NWS Daily Summary

Daily Weather History Graph

Daily Weather History Graph

Search for Another Location

Airport:

Trip Planner

Search our weather history database for the weather conditions in past years. The results will help you decide how hot, cold, wet, or windy it might be!

Date:

Astronomy

Mar. 31, 2013 Rise Set
Actual Time 7:08 AM EDT 7:39 PM EDT
Civil Twilight 6:44 AM EDT 8:04 PM EDT
Nautical Twilight 6:14 AM EDT 8:34 PM EDT
Astronomical Twilight 5:45 AM EDT 9:03 PM EDT
Moon No Moon Rise 10:08 AM EDT (3/31)
Length of Visible Light 13h 20m
Length of Day
12h 31m
Waning Gibbous, 78% of the Moon is Illuminated
Mar 31
Waning Gibbous
Apr 3
Last Quarter
Apr 10
New
Apr 18
First Quarter
Apr 25
Full

Hourly Weather History & Observations

Time (EDT) Temp. Dew Point Humidity Pressure Visibility Wind Dir Wind Speed Gust Speed Precip Events Conditions
12:15 AM 59.0 °F 48.2 °F 67% 30.09 in 10.0 mi South 8.1 mph - N/A   Clear
12:35 AM 59.0 °F 48.2 °F 67% 30.09 in 7.0 mi SSW 8.1 mph - N/A   Clear
12:55 AM 60.8 °F 48.2 °F 63% 30.09 in 10.0 mi SSW 8.1 mph - N/A   Clear
1:15 AM 62.6 °F 48.2 °F 59% 30.09 in 10.0 mi SSW 9.2 mph - N/A   Scattered Clouds
1:35 AM 62.6 °F 48.2 °F 59% 30.08 in 10.0 mi SSW 9.2 mph - N/A   Clear
1:55 AM 62.6 °F 48.2 °F 59% 30.08 in 10.0 mi SSW 9.2 mph - N/A   Clear
2:15 AM 62.6 °F 50.0 °F 63% 30.07 in 10.0 mi SSW 9.2 mph - N/A   Clear
2:35 AM 62.6 °F 50.0 °F 63% 30.07 in 10.0 mi SSW 9.2 mph - N/A   Clear
2:55 AM 62.6 °F 50.0 °F 63% 30.06 in 10.0 mi SSW 12.7 mph 17.3 mph N/A   Clear
3:15 AM 62.6 °F 50.0 °F 63% 30.06 in 10.0 mi SSW 10.4 mph - N/A   Clear
3:35 AM 62.6 °F 50.0 °F 63% 30.05 in 7.0 mi SSW 9.2 mph - N/A   Clear
3:55 AM 62.6 °F 50.0 °F 63% 30.04 in 10.0 mi SSW 8.1 mph - N/A   Scattered Clouds
4:15 AM 62.6 °F 51.8 °F 68% 30.04 in 10.0 mi SSW 9.2 mph - N/A   Scattered Clouds
4:35 AM 62.6 °F 51.8 °F 68% 30.03 in 10.0 mi SSW 6.9 mph - N/A   Mostly Cloudy
4:55 AM 62.6 °F 51.8 °F 68% 30.03 in 7.0 mi SSW 8.1 mph - N/A   Overcast
5:15 AM 62.6 °F 51.8 °F 68% 30.02 in 10.0 mi SSW 5.8 mph - N/A   Mostly Cloudy
5:35 AM 62.6 °F 51.8 °F 68% 30.02 in 10.0 mi SSW 5.8 mph - N/A   Overcast
6:15 AM 62.6 °F 51.8 °F 68% 30.03 in 10.0 mi SSW 6.9 mph - N/A   Overcast
6:35 AM 60.8 °F 51.8 °F 72% 30.03 in 7.0 mi SW 6.9 mph - N/A   Mostly Cloudy
6:55 AM 60.8 °F 51.8 °F 72% 30.03 in 10.0 mi SW 8.1 mph - N/A   Overcast
7:35 AM 60.8 °F 51.8 °F 72% 30.04 in 7.0 mi WSW 8.1 mph - N/A Rain Light Rain
7:55 AM 59.0 °F 51.8 °F 77% 30.04 in 7.0 mi SW 4.6 mph - N/A Rain Light Rain
8:15 AM 59.0 °F 53.6 °F 82% 30.05 in 7.0 mi WSW 4.6 mph - 0.01 in Rain Rain
8:35 AM 57.2 °F 53.6 °F 88% 30.04 in 10.0 mi SSW 6.9 mph - 0.03 in Rain Light Rain
8:55 AM 57.2 °F 53.6 °F 88% 30.04 in 7.0 mi SSW 6.9 mph - 0.04 in Rain Rain
9:35 AM 59.0 °F 55.4 °F 88% 30.04 in 7.0 mi SW 9.2 mph - N/A   Overcast
10:15 AM 60.8 °F 55.4 °F 82% 30.04 in 7.0 mi SW 11.5 mph 16.1 mph N/A   Mostly Cloudy
10:35 AM 60.8 °F 55.4 °F 82% 30.03 in 10.0 mi SW 9.2 mph - N/A   Mostly Cloudy
10:55 AM 62.6 °F 51.8 °F 68% 30.03 in 7.0 mi SW 9.2 mph - N/A   Mostly Cloudy
11:35 AM 64.4 °F 53.6 °F 68% 30.03 in 7.0 mi SW 12.7 mph 18.4 mph N/A   Overcast
11:55 AM 64.4 °F 53.6 °F 68% 30.03 in 7.0 mi SW 12.7 mph 18.4 mph N/A   Mostly Cloudy
12:15 PM 64.4 °F 53.6 °F 68% 30.03 in 10.0 mi SW 11.5 mph 20.7 mph N/A   Mostly Cloudy
12:35 PM 64.4 °F 55.4 °F 73% 30.03 in 10.0 mi SW 10.4 mph 21.9 mph N/A Rain Light Rain
12:55 PM 64.4 °F 55.4 °F 73% 30.02 in 10.0 mi SW 9.2 mph 20.7 mph N/A Rain Light Rain
1:15 PM 66.2 °F 57.2 °F 73% 30.01 in 7.0 mi SW 11.5 mph - N/A   Mostly Cloudy
1:35 PM 68.0 °F 57.2 °F 68% 30.00 in 7.0 mi SW 13.8 mph 21.9 mph N/A   Mostly Cloudy
1:55 PM 69.8 °F 57.2 °F 64% 29.99 in 10.0 mi SW 13.8 mph 23.0 mph N/A   Mostly Cloudy
2:15 PM 71.6 °F 57.2 °F 60% 29.98 in 10.0 mi SW 11.5 mph 26.5 mph N/A   Mostly Cloudy
2:35 PM 73.4 °F 57.2 °F 57% 29.97 in 7.0 mi SW 13.8 mph 21.9 mph N/A   Mostly Cloudy
2:55 PM 71.6 °F 57.2 °F 60% 29.95 in 10.0 mi SW 11.5 mph 19.6 mph N/A   Mostly Cloudy
3:15 PM 73.4 °F 57.2 °F 57% 29.95 in 10.0 mi SW 12.7 mph 17.3 mph N/A   Mostly Cloudy
3:35 PM 73.4 °F 55.4 °F 53% 29.95 in 7.0 mi WSW 12.7 mph 27.6 mph N/A   Mostly Cloudy
3:55 PM 75.2 °F 55.4 °F 50% 29.93 in 10.0 mi SW 12.7 mph 20.7 mph N/A   Scattered Clouds
4:15 PM 75.2 °F 55.4 °F 50% 29.93 in 10.0 mi WSW 15.0 mph 21.9 mph N/A   Scattered Clouds
4:35 PM 75.2 °F 55.4 °F 50% 29.92 in 10.0 mi SW 11.5 mph 20.7 mph N/A   Scattered Clouds
5:15 PM 77.0 °F 55.4 °F 47% 29.89 in 7.0 mi SW 9.2 mph 20.7 mph N/A   Scattered Clouds
5:35 PM 77.0 °F 55.4 °F 47% 29.89 in 10.0 mi WSW 12.7 mph 20.7 mph N/A   Mostly Cloudy
6:15 PM 75.2 °F 57.2 °F 53% 29.90 in 10.0 mi SSW 13.8 mph 21.9 mph N/A   Mostly Cloudy
6:35 PM 73.4 °F 55.4 °F 53% 29.90 in 10.0 mi SSW 13.8 mph 19.6 mph N/A   Scattered Clouds
6:55 PM 71.6 °F 55.4 °F 57% 29.90 in 7.0 mi SSW 11.5 mph - N/A   Scattered Clouds
7:15 PM 71.6 °F 55.4 °F 57% 29.89 in 10.0 mi South 9.2 mph 19.6 mph N/A   Mostly Cloudy
7:35 PM 68.0 °F 57.2 °F 68% 29.90 in 4.0 mi SSW 8.1 mph - 0.07 in Rain Heavy Rain
7:55 PM 66.2 °F 57.2 °F 73% 29.90 in 10.0 mi SSW 5.8 mph - 0.08 in Rain , Thunderstorm Light Thunderstorms and Rain
8:35 PM 62.6 °F 57.2 °F 82% 29.92 in 10.0 mi SSW 13.8 mph 20.7 mph 0.04 in Rain Light Rain
8:55 PM 62.6 °F 57.2 °F 82% 29.92 in 7.0 mi SSW 4.6 mph - 0.08 in Rain Heavy Rain
9:15 PM 60.8 °F 57.2 °F 88% 29.92 in 7.0 mi SSW 4.6 mph - N/A   Overcast
9:35 PM 60.8 °F 57.2 °F 88% 29.93 in 10.0 mi Calm Calm - N/A   Overcast
9:55 PM 60.8 °F 57.2 °F 88% 29.93 in 10.0 mi South 3.5 mph - 0.02 in Rain Light Rain
10:15 PM 60.8 °F 57.2 °F 88% 29.93 in 10.0 mi Calm Calm - N/A   Mostly Cloudy
10:35 PM 60.8 °F 57.2 °F 88% 29.94 in 10.0 mi SSW 3.5 mph - N/A   Overcast
10:55 PM 60.8 °F 57.2 °F 88% 29.94 in 7.0 mi Calm Calm - N/A   Overcast
11:15 PM 60.8 °F 57.2 °F 88% 29.94 in 10.0 mi Calm Calm - N/A   Mostly Cloudy
11:35 PM 60.8 °F 57.2 °F 88% 29.94 in 7.0 mi Calm Calm - N/A   Mostly Cloudy
11:55 PM 59.0 °F 57.2 °F 94% 29.93 in 4.0 mi Calm Calm - N/A   Scattered Clouds